マクノート彗星

C/2009 R1 ( McNaught )

English version
Home page
Updated on April 6, 2013

---------------------------------------------------------------------

・ プロフィール

発見日 2009年9月9日
発見光度 17.3等
発見者 R. H. McNaught (Siding Spring)

・ 写真集

・ 軌道要素

Epoch 2010 June 13.0 TT = JDT 2455360.5
T 2010 July 2.67930 TT                                  MPC
q   0.4050654            (2000.0)            P               Q
z  -0.0009039      Peri.  130.69723     -0.41486362     -0.69132185
 +/-0.0000019      Node   322.62252     +0.19335374     +0.56833383
e   1.0003661      Incl.   77.03007     +0.88910208     -0.44617347
From 607 observations 2009 July 20-2010 June 29, mean residual 0".7.

・ 星図

・ 光度変化

        m1 =  6.5 + 5 logΔ + 12.0 log r  [   ,-24]  (              〜2010年 6月 8日)
        m1 =  5.0 + 5 logΔ +  1.0 log r  [-24, 24]  (2010年 6月 8日〜2010年 7月26日)
        m1 =  6.5 + 5 logΔ + 12.0 log r  [ 24, 64]  (2010年 7月26日〜2010年 9月 4日)
        m1 = -1.5 + 5 logΔ + 60   log r  [ 64,   ]  (2010年 9月 4日〜              )

        ※ 灰色の曲線は、m1 = 6.5 + 5 logΔ + 12.0 log r の光度曲線です。

---------------------------------------------------------------------

軌道要素はM.P.E.C. 2013-B90に掲載されたものです。
星図はステラナビゲータ Ver.8 (アストロアーツ) で作成したものです。
光度グラフはComet for Windowsで作成したものです。

---------------------------------------------------------------------

Copyright(C) Seiichi Yoshida (comet@aerith.net). All rights reserved.